Powrót do katalogu

STARLINK-4509

AktywnyŁącznośćVLEO
NORAD 53404·PAYLOAD·🇺🇸 United States

Wystrzelony Aug 10, 2022 z Cape Canaveral Space Force Station

Loading…

Następne Przeloty (najbliższe 24 godziny)

TLE

ŚwieżeSource: CelesTrak SupGP

Epoka: Sep 15, 2026, 02:28 UTC

1 53404C 22097S   26258.10326389  .00050605  00000+0  16274-2 0  2586
2 53404  53.1572 331.9343 0000981  92.8863 300.0134 15.31674486    18

Śledź STARLINK-4509 w czasie rzeczywistym z AllMySat

Download on the App Store